TimeCST,TemperatureF,Dew PointF,Humidity,Sea Level PressureIn,VisibilityMPH,Wind Direction,Wind SpeedMPH,Gust SpeedMPH,PrecipitationIn,Events,Conditions,WindDirDegrees,DateUTC
12:53 AM,55.0,35.1,47,30.18,10.0,NNW,16.1,24.2,N/A,,Scattered Clouds,340,2014-01-15 06:53:00
1:53 AM,51.1,36.0,56,30.20,10.0,NW,10.4,-,N/A,,Clear,320,2014-01-15 07:53:00
2:53 AM,50.0,33.1,52,30.22,10.0,NNW,17.3,24.2,N/A,,Clear,340,2014-01-15 08:53:00
3:53 AM,50.0,33.1,52,30.25,10.0,NNW,16.1,27.6,N/A,,Clear,330,2014-01-15 09:53:00
4:53 AM,46.9,30.0,52,30.27,10.0,NNW,16.1,20.7,N/A,,Clear,340,2014-01-15 10:53:00
5:53 AM,46.0,26.1,46,30.31,10.0,NNW,10.4,-,N/A,,Clear,340,2014-01-15 11:53:00
6:53 AM,43.0,25.0,49,30.32,10.0,NNW,9.2,-,N/A,,Clear,330,2014-01-15 12:53:00
7:53 AM,42.1,26.1,53,30.35,10.0,NW,6.9,-,N/A,,Clear,320,2014-01-15 13:53:00
8:53 AM,46.0,26.1,46,30.37,10.0,NW,10.4,-,N/A,,Clear,310,2014-01-15 14:53:00
9:53 AM,51.1,23.0,33,30.39,10.0,NNW,12.7,-,N/A,,Clear,330,2014-01-15 15:53:00
10:53 AM,54.0,21.0,28,30.37,10.0,North,13.8,18.4,N/A,,Clear,360,2014-01-15 16:53:00
11:53 AM,55.9,18.0,23,30.32,10.0,NNW,16.1,20.7,N/A,,Clear,340,2014-01-15 17:53:00
12:53 PM,57.0,19.0,23,30.28,10.0,NW,17.3,-,N/A,,Clear,320,2014-01-15 18:53:00
1:53 PM,57.0,18.0,22,30.26,10.0,NW,16.1,26.5,N/A,,Clear,310,2014-01-15 19:53:00
2:53 PM,59.0,19.9,22,30.24,10.0,NNW,12.7,18.4,N/A,,Clear,330,2014-01-15 20:53:00
3:53 PM,57.9,18.0,21,30.24,10.0,NW,15.0,-,N/A,,Clear,320,2014-01-15 21:53:00
4:53 PM,55.9,19.9,25,30.24,10.0,NNW,11.5,-,N/A,,Clear,330,2014-01-15 22:53:00
5:53 PM,48.9,21.9,35,30.24,10.0,WNW,6.9,-,N/A,,Clear,300,2014-01-15 23:53:00
6:53 PM,46.0,25.0,44,30.25,10.0,WNW,4.6,-,N/A,,Clear,290,2014-01-16 00:53:00
7:53 PM,41.0,28.0,60,30.25,10.0,Calm,Calm,-,N/A,,Clear,0,2014-01-16 01:53:00
8:53 PM,42.1,27.0,55,30.25,10.0,Calm,Calm,-,N/A,,Clear,0,2014-01-16 02:53:00
9:53 PM,41.0,30.0,65,30.25,10.0,Calm,Calm,-,N/A,,Clear,0,2014-01-16 03:53:00
10:53 PM,39.0,30.0,70,30.23,10.0,SW,3.5,-,N/A,,Clear,230,2014-01-16 04:53:00
11:53 PM,39.0,30.0,70,30.22,10.0,Calm,Calm,-,N/A,,Clear,0,2014-01-16 05:53:00